Time,TemperatureF,DewpointF,PressureIn,WindDirection,WindDirectionDegrees,WindSpeedMPH,WindSpeedGustMPH,Humidity,HourlyPrecipIn,Conditions,Clouds,dailyrainin,SoftwareType,DateUTC
2013-09-10 00:04:00,76.8,69.0,30.00,ESE,122,0.0,0.0,78,0.00,,,0.00,weatherlink.com 1.10,2013-09-10 05:04:00,
2013-09-10 00:19:00,75.8,69.0,30.00,ESE,122,0.0,0.0,79,0.00,,,0.00,weatherlink.com 1.10,2013-09-10 05:19:00,
2013-09-10 00:34:00,74.8,69.0,30.00,ESE,122,0.0,0.0,81,0.00,,,0.00,weatherlink.com 1.10,2013-09-10 05:34:00,
2013-09-10 00:49:00,74.2,69.0,30.00,ESE,122,0.0,0.0,83,0.00,,,0.00,weatherlink.com 1.10,2013-09-10 05:49:00,
2013-09-10 01:04:00,73.8,69.0,30.00,ESE,122,0.0,0.0,84,0.00,,,0.00,weatherlink.com 1.10,2013-09-10 06:04:00,
2013-09-10 01:19:00,73.4,68.0,30.00,ESE,122,0.0,0.0,84,0.00,,,0.00,weatherlink.com 1.10,2013-09-10 06:19:00,
2013-09-10 01:34:00,73.1,68.0,30.01,ESE,122,0.0,0.0,84,0.00,,,0.00,weatherlink.com 1.10,2013-09-10 06:34:00,
2013-09-10 01:49:00,73.1,68.0,30.01,ESE,122,0.0,0.0,85,0.00,,,0.00,weatherlink.com 1.10,2013-09-10 06:49:00,
2013-09-10 02:04:00,72.9,68.0,30.01,ESE,122,0.0,0.0,85,0.00,,,0.00,weatherlink.com 1.10,2013-09-10 07:04:00,
2013-09-10 02:19:00,73.0,69.0,30.02,ESE,122,0.0,0.0,86,0.00,,,0.00,weatherlink.com 1.10,2013-09-10 07:19:00,
2013-09-10 02:34:00,73.0,69.0,30.01,ESE,122,0.0,0.0,86,0.00,,,0.00,weatherlink.com 1.10,2013-09-10 07:34:00,
2013-09-10 02:49:00,72.9,69.0,30.02,ESE,122,0.0,0.0,86,0.00,,,0.00,weatherlink.com 1.10,2013-09-10 07:49:00,
2013-09-10 03:04:00,72.7,68.0,30.02,ESE,122,0.0,0.0,86,0.00,,,0.00,weatherlink.com 1.10,2013-09-10 08:04:00,
2013-09-10 03:19:00,72.6,68.0,30.02,ESE,122,0.0,0.0,86,0.00,,,0.00,weatherlink.com 1.10,2013-09-10 08:19:00,
2013-09-10 03:34:00,72.6,69.0,30.02,ESE,122,0.0,0.0,87,0.00,,,0.00,weatherlink.com 1.10,2013-09-10 08:34:00,
2013-09-10 03:49:00,72.6,69.0,30.02,ESE,122,0.0,0.0,87,0.00,,,0.00,weatherlink.com 1.10,2013-09-10 08:49:00,
2013-09-10 04:04:00,72.3,68.0,30.02,ESE,122,0.0,0.0,87,0.00,,,0.00,weatherlink.com 1.10,2013-09-10 09:04:00,
2013-09-10 04:20:00,72.1,68.0,30.02,ESE,122,0.0,0.0,87,0.00,,,0.00,weatherlink.com 1.10,2013-09-10 09:20:00,
2013-09-10 04:34:00,72.1,68.0,30.03,ESE,122,0.0,0.0,88,0.00,,,0.00,weatherlink.com 1.10,2013-09-10 09:34:00,
2013-09-10 04:49:00,72.0,68.0,30.03,ESE,122,0.0,0.0,88,0.00,,,0.00,weatherlink.com 1.10,2013-09-10 09:49:00,
2013-09-10 05:04:00,71.7,68.0,30.03,ESE,122,0.0,0.0,88,0.00,,,0.00,weatherlink.com 1.10,2013-09-10 10:04:00,
2013-09-10 05:19:00,71.1,67.0,30.03,ESE,122,0.0,0.0,87,0.00,,,0.00,weatherlink.com 1.10,2013-09-10 10:19:00,
2013-09-10 05:34:00,71.1,67.0,30.04,ESE,122,0.0,0.0,88,0.00,,,0.00,weatherlink.com 1.10,2013-09-10 10:34:00,
2013-09-10 05:50:00,71.3,68.0,30.04,ESE,122,0.0,0.0,88,0.00,,,0.00,weatherlink.com 1.10,2013-09-10 10:50:00,
2013-09-10 06:05:00,71.1,67.0,30.04,ESE,122,0.0,0.0,88,0.00,,,0.00,weatherlink.com 1.10,2013-09-10 11:05:00,
2013-09-10 06:20:00,70.8,67.0,30.04,ESE,122,0.0,0.0,88,0.00,,,0.00,weatherlink.com 1.10,2013-09-10 11:20:00,
2013-09-10 06:35:00,70.9,67.0,30.05,ESE,122,0.0,0.0,88,0.00,,,0.00,weatherlink.com 1.10,2013-09-10 11:35:00,
2013-09-10 06:50:00,70.9,67.0,30.06,ESE,122,0.0,0.0,88,0.00,,,0.00,weatherlink.com 1.10,2013-09-10 11:50:00,
2013-09-10 07:05:00,71.0,68.0,30.06,ESE,122,0.0,0.0,89,0.00,,,0.00,weatherlink.com 1.10,2013-09-10 12:05:00,
2013-09-10 07:20:00,71.0,67.0,30.07,ESE,122,0.0,0.0,88,0.00,,,0.00,weatherlink.com 1.10,2013-09-10 12:20:00,
2013-09-10 07:35:00,71.3,68.0,30.07,ESE,123,0.0,1.0,89,0.00,,,0.00,weatherlink.com 1.10,2013-09-10 12:35:00,
2013-09-10 07:50:00,72.1,69.0,30.07,ESE,122,0.0,0.0,89,0.00,,,0.00,weatherlink.com 1.10,2013-09-10 12:50:00,
2013-09-10 08:05:00,73.3,70.0,30.08,ESE,123,0.0,0.0,89,0.00,,,0.00,weatherlink.com 1.10,2013-09-10 13:05:00,
2013-09-10 08:20:00,75.0,72.0,30.08,ENE,76,0.0,3.0,90,0.00,,,0.00,weatherlink.com 1.10,2013-09-10 13:20:00,
2013-09-10 08:35:00,76.2,73.0,30.09,ENE,76,0.0,0.0,88,0.00,,,0.00,weatherlink.com 1.10,2013-09-10 13:35:00,
2013-09-10 08:50:00,78.0,74.0,30.09,ENE,76,0.0,1.0,86,0.00,,,0.00,weatherlink.com 1.10,2013-09-10 13:50:00,
2013-09-10 09:05:00,81.7,74.0,30.09,East,98,0.0,5.0,77,0.00,,,0.00,weatherlink.com 1.10,2013-09-10 14:05:00,
2013-09-10 09:20:00,83.8,73.0,30.08,ESE,107,1.0,4.0,71,0.00,,,0.00,weatherlink.com 1.10,2013-09-10 14:20:00,
2013-09-10 09:35:00,83.7,73.0,30.09,SSE,165,0.0,4.0,71,0.00,,,0.00,weatherlink.com 1.10,2013-09-10 14:35:00,
2013-09-10 09:50:00,84.2,73.0,30.09,NE,49,2.0,4.0,69,0.00,,,0.00,weatherlink.com 1.10,2013-09-10 14:50:00,
2013-09-10 10:05:00,85.5,72.0,30.09,SSE,163,0.0,7.0,64,0.00,,,0.00,weatherlink.com 1.10,2013-09-10 15:05:00,
2013-09-10 10:20:00,85.3,72.0,30.09,WNW,288,0.0,3.0,65,0.00,,,0.00,weatherlink.com 1.10,2013-09-10 15:20:00,
2013-09-10 10:35:00,89.3,72.0,30.09,ESE,109,0.0,9.0,57,0.00,,,0.00,weatherlink.com 1.10,2013-09-10 15:35:00,
2013-09-10 10:50:00,88.1,71.0,30.09,SSE,152,3.0,8.0,58,0.00,,,0.00,weatherlink.com 1.10,2013-09-10 15:50:00,
2013-09-10 11:05:00,90.2,71.0,30.09,SE,125,0.0,7.0,53,0.00,,,0.00,weatherlink.com 1.10,2013-09-10 16:05:00,
2013-09-10 11:20:00,88.1,70.0,30.09,East,80,2.0,5.0,55,0.00,,,0.00,weatherlink.com 1.10,2013-09-10 16:20:00,
2013-09-10 11:35:00,88.0,70.0,30.09,NE,34,4.0,5.0,55,0.00,,,0.00,weatherlink.com 1.10,2013-09-10 16:35:00,
2013-09-10 11:50:00,88.8,68.0,30.09,SSE,148,1.0,5.0,50,0.00,,,0.00,weatherlink.com 1.10,2013-09-10 16:50:00,
2013-09-10 12:05:00,87.9,68.0,30.09,SE,136,0.0,5.0,51,0.00,,,0.00,weatherlink.com 1.10,2013-09-10 17:05:00,
2013-09-10 12:20:00,88.1,68.0,30.09,SE,125,2.0,7.0,51,0.00,,,0.00,weatherlink.com 1.10,2013-09-10 17:20:00,
2013-09-10 12:35:00,88.6,66.0,30.09,SE,126,2.0,8.0,47,0.00,,,0.00,weatherlink.com 1.10,2013-09-10 17:35:00,
2013-09-10 12:50:00,90.0,67.0,30.08,SSE,155,0.0,5.0,47,0.00,,,0.00,weatherlink.com 1.10,2013-09-10 17:50:00,
2013-09-10 13:05:00,89.9,67.0,30.08,SSE,158,0.0,5.0,47,0.00,,,0.00,weatherlink.com 1.10,2013-09-10 18:05:00,
2013-09-10 13:20:00,90.8,68.0,30.08,SSE,159,2.0,5.0,47,0.00,,,0.00,weatherlink.com 1.10,2013-09-10 18:20:00,
2013-09-10 13:35:00,90.0,68.0,30.07,ESE,119,1.0,5.0,49,0.00,,,0.00,weatherlink.com 1.10,2013-09-10 18:35:00,
2013-09-10 13:50:00,93.0,67.0,30.07,SE,144,1.0,4.0,42,0.00,,,0.00,weatherlink.com 1.10,2013-09-10 18:50:00,
2013-09-10 14:05:00,91.3,66.0,30.07,NE,34,1.0,7.0,43,0.00,,,0.00,weatherlink.com 1.10,2013-09-10 19:05:00,
2013-09-10 14:21:00,90.7,66.0,30.06,SE,130,2.0,5.0,44,0.00,,,0.00,weatherlink.com 1.10,2013-09-10 19:21:00,
2013-09-10 14:36:00,92.5,67.0,30.05,East,80,1.0,6.0,43,0.00,,,0.00,weatherlink.com 1.10,2013-09-10 19:36:00,
2013-09-10 14:51:00,91.0,66.0,30.05,East,101,0.0,7.0,43,0.00,,,0.00,weatherlink.com 1.10,2013-09-10 19:51:00,
2013-09-10 15:06:00,90.5,66.0,30.05,ESE,113,2.0,3.0,45,0.00,,,0.00,weatherlink.com 1.10,2013-09-10 20:06:00,
2013-09-10 15:21:00,92.2,66.0,30.04,SE,139,1.0,5.0,42,0.00,,,0.00,weatherlink.com 1.10,2013-09-10 20:21:00,
2013-09-10 15:36:00,93.0,67.0,30.03,SSE,147,0.0,5.0,43,0.00,,,0.00,weatherlink.com 1.10,2013-09-10 20:36:00,
2013-09-10 15:51:00,94.6,66.0,30.02,SE,125,1.0,11.0,39,0.00,,,0.00,weatherlink.com 1.10,2013-09-10 20:51:00,
2013-09-10 16:06:00,95.4,66.0,30.02,SE,130,3.0,6.0,38,0.00,,,0.00,weatherlink.com 1.10,2013-09-10 21:06:00,
2013-09-10 16:21:00,92.5,66.0,30.01,East,101,4.0,4.0,42,0.00,,,0.00,weatherlink.com 1.10,2013-09-10 21:21:00,
2013-09-10 16:36:00,95.9,67.0,30.01,ESE,109,1.0,11.0,39,0.00,,,0.00,weatherlink.com 1.10,2013-09-10 21:36:00,
2013-09-10 16:51:00,95.2,65.0,30.00,South,175,6.0,6.0,37,0.00,,,0.00,weatherlink.com 1.10,2013-09-10 21:51:00,
2013-09-10 17:06:00,93.5,65.0,30.00,South,178,2.0,5.0,39,0.00,,,0.00,weatherlink.com 1.10,2013-09-10 22:06:00,
2013-09-10 17:21:00,94.0,65.0,30.00,SSW,205,3.0,6.0,39,0.00,,,0.00,weatherlink.com 1.10,2013-09-10 22:21:00,
2013-09-10 17:36:00,93.7,65.0,30.00,SE,140,0.0,5.0,39,0.00,,,0.00,weatherlink.com 1.10,2013-09-10 22:36:00,
2013-09-10 17:51:00,93.5,65.0,30.00,ESE,121,0.0,6.0,39,0.00,,,0.00,weatherlink.com 1.10,2013-09-10 22:51:00,
2013-09-10 18:06:00,93.3,66.0,30.00,SSE,152,0.0,7.0,40,0.00,,,0.00,weatherlink.com 1.10,2013-09-10 23:06:00,
2013-09-10 18:21:00,92.6,65.0,30.01,SSE,157,1.0,5.0,40,0.00,,,0.00,weatherlink.com 1.10,2013-09-10 23:21:00,
2013-09-10 18:36:00,92.1,66.0,30.01,ESE,115,1.0,3.0,42,0.00,,,0.00,weatherlink.com 1.10,2013-09-10 23:36:00,
2013-09-10 18:51:00,91.5,66.0,30.01,ESE,108,0.0,5.0,43,0.00,,,0.00,weatherlink.com 1.10,2013-09-10 23:51:00,
2013-09-10 19:06:00,90.7,65.0,30.01,ESE,108,0.0,0.0,43,0.00,,,0.00,weatherlink.com 1.10,2013-09-11 00:06:00,
2013-09-10 19:21:00,89.6,66.0,30.01,ESE,108,0.0,0.0,45,0.00,,,0.00,weatherlink.com 1.10,2013-09-11 00:21:00,
2013-09-10 19:36:00,88.6,66.0,30.02,ESE,108,0.0,0.0,48,0.00,,,0.00,weatherlink.com 1.10,2013-09-11 00:36:00,
2013-09-10 19:51:00,87.1,66.0,30.02,ESE,108,0.0,0.0,50,0.00,,,0.00,weatherlink.com 1.10,2013-09-11 00:51:00,
2013-09-10 20:06:00,85.8,67.0,30.02,ESE,108,0.0,0.0,53,0.00,,,0.00,weatherlink.com 1.10,2013-09-11 01:06:00,
2013-09-10 20:21:00,84.6,67.0,30.02,ESE,108,0.0,0.0,55,0.00,,,0.00,weatherlink.com 1.10,2013-09-11 01:21:00,
2013-09-10 20:36:00,83.6,67.0,30.03,ESE,108,0.0,0.0,57,0.00,,,0.00,weatherlink.com 1.10,2013-09-11 01:36:00,
2013-09-10 20:51:00,82.8,67.0,30.03,ESE,108,0.0,0.0,59,0.00,,,0.00,weatherlink.com 1.10,2013-09-11 01:51:00,
2013-09-10 21:06:00,82.0,67.0,30.04,ESE,108,0.0,0.0,60,0.00,,,0.00,weatherlink.com 1.10,2013-09-11 02:06:00,
2013-09-10 21:21:00,80.9,67.0,30.05,ESE,108,0.0,0.0,63,0.00,,,0.00,weatherlink.com 1.10,2013-09-11 02:21:00,
2013-09-10 21:36:00,80.4,67.0,30.05,ESE,108,0.0,0.0,64,0.00,,,0.00,weatherlink.com 1.10,2013-09-11 02:36:00,
2013-09-10 21:51:00,79.9,68.0,30.06,ESE,108,0.0,0.0,66,0.00,,,0.00,weatherlink.com 1.10,2013-09-11 02:51:00,
2013-09-10 22:06:00,79.3,67.0,30.06,ESE,108,0.0,0.0,67,0.00,,,0.00,weatherlink.com 1.10,2013-09-11 03:06:00,
2013-09-10 22:21:00,78.6,67.0,30.06,ESE,108,0.0,0.0,68,0.00,,,0.00,weatherlink.com 1.10,2013-09-11 03:21:00,
2013-09-10 22:36:00,78.1,67.0,30.07,ESE,108,0.0,0.0,69,0.00,,,0.00,weatherlink.com 1.10,2013-09-11 03:36:00,
2013-09-10 22:51:00,77.8,68.0,30.07,ESE,108,0.0,0.0,71,0.00,,,0.00,weatherlink.com 1.10,2013-09-11 03:51:00,
2013-09-10 23:06:00,77.6,68.0,30.07,ESE,108,0.0,0.0,71,0.00,,,0.00,weatherlink.com 1.10,2013-09-11 04:06:00,
2013-09-10 23:21:00,77.2,68.0,30.07,ESE,108,0.0,0.0,72,0.00,,,0.00,weatherlink.com 1.10,2013-09-11 04:21:00,
2013-09-10 23:36:00,77.0,68.0,30.07,ESE,108,0.0,0.0,73,0.00,,,0.00,weatherlink.com 1.10,2013-09-11 04:36:00,
2013-09-10 23:51:00,77.2,68.0,30.07,ESE,111,0.0,3.0,74,0.00,,,0.00,weatherlink.com 1.10,2013-09-11 04:51:00,